Carroll, IA

7:28 PM CST on December 11, 2017 (GMT -0600)
Neu

Weather History for KCIN - December, 2011

Change the Weather History Date:

Monday, December 26, 2011

  Actual Average Record
Temperature  
Mean Temperature 34 °F -  
Max Temperature 46 °F 29 °F 57 °F (1959)
Min Temperature 23 °F 9 °F -17 °F (1990)
Degree Days  
Heating Degree Days 30    
Moisture  
Dew Point 25 °F    
Average Humidity 66    
Maximum Humidity 80    
Minimum Humidity 46    
Precipitation  
Precipitation 0.00 in - - ()
Sea Level Pressure  
Sea Level Pressure 30.04 in    
Wind  
Wind Speed 11 mph (SSW)    
Max Wind Speed 34 mph    
Max Gust Speed 41 mph    
Visibility 10 miles    
Events      
Averages and records for this station are not official NWS values.
T = Trace of Precipitation, MM = Missing Value Source: NWS Daily Summary

Daily Weather History Graph

Daily Weather History Graph

Search for Another Location

Airport or City:

Trip Planner

Search our weather history database for the weather conditions in past years. The results will help you decide how hot, cold, wet, or windy it might be!

Date:

Astronomy

Dec. 26, 2011 Rise Set
Actual Time 7:46 AM CST 4:53 PM CST
Civil Twilight 7:14 AM CST 5:25 PM CST
Nautical Twilight 6:39 AM CST 6:00 PM CST
Astronomical Twilight 6:04 AM CST 6:34 PM CST
Moon 9:04 AM CST (12/26) 7:24 PM CST (12/26)
Length of Visible Light 10h 10m
Length of Day
9h 07m
Waxing Crescent, 5% of the Moon is Illuminated
Dec 26
Waxing Crescent
Jan 1
First Quarter
Jan 9
Full
Jan 16
Last Quarter
Jan 23
New

Hourly Weather History & Observations

Time (CST) Temp. Windchill Dew Point Humidity Pressure Visibility Wind Dir Wind Speed Gust Speed Precip Events Conditions
12:15 AM 28.4 °F - 21.2 °F 74% 30.25 in 10.0 mi Calm Calm - N/A   Clear
12:35 AM 28.4 °F - 21.2 °F 74% 30.24 in 10.0 mi Calm Calm - N/A   Clear
12:55 AM 26.6 °F - 19.4 °F 74% 30.22 in 10.0 mi Calm Calm - N/A   Clear
1:15 AM 23.0 °F 15.8 °F 17.6 °F 80% 30.21 in 10.0 mi SSE 5.8 mph - N/A   Clear
1:35 AM 23.0 °F 15.8 °F 17.6 °F 80% 30.20 in 10.0 mi South 5.8 mph - N/A   Clear
1:55 AM 24.8 °F 19.1 °F 19.4 °F 80% 30.20 in 10.0 mi South 4.6 mph - N/A   Clear
2:35 AM 26.6 °F 18.2 °F 19.4 °F 74% 30.21 in 10.0 mi SSW 8.1 mph - N/A   Clear
2:55 AM 26.6 °F 19.1 °F 21.2 °F 80% 30.20 in 10.0 mi SSW 6.9 mph - N/A   Clear
3:15 AM 30.2 °F 20.2 °F 23.0 °F 75% 30.18 in 10.0 mi SSW 12.7 mph - N/A   Clear
3:35 AM 30.2 °F 21.3 °F 21.2 °F 69% 30.17 in 10.0 mi SSW 10.4 mph - N/A   Clear
3:55 AM 30.2 °F 18.9 °F 23.0 °F 75% 30.16 in 10.0 mi SSW 16.1 mph - N/A   Clear
4:15 AM 28.4 °F 17.0 °F 21.2 °F 74% 30.15 in 10.0 mi South 15.0 mph - N/A   Clear
4:35 AM 28.4 °F 17.5 °F 21.2 °F 74% 30.14 in 10.0 mi South 13.8 mph - N/A   Clear
4:55 AM 26.6 °F 15.7 °F 21.2 °F 80% 30.13 in 10.0 mi South 12.7 mph - N/A   Clear
5:15 AM 28.4 °F 18.5 °F 21.2 °F 74% 30.12 in 10.0 mi SSW 11.5 mph - N/A   Clear
5:35 AM 26.6 °F 16.2 °F 19.4 °F 74% 30.11 in 10.0 mi South 11.5 mph - N/A   Clear
5:55 AM 26.6 °F 16.2 °F 21.2 °F 80% 30.11 in 10.0 mi South 11.5 mph - N/A   Clear
6:15 AM 28.4 °F 18.5 °F 21.2 °F 74% 30.10 in 10.0 mi South 11.5 mph - N/A   Clear
6:35 AM 26.6 °F 15.7 °F 21.2 °F 80% 30.10 in 10.0 mi South 12.7 mph - N/A   Clear
6:55 AM 26.6 °F 15.7 °F 21.2 °F 80% 30.10 in 10.0 mi South 12.7 mph - N/A   Clear
7:15 AM 26.6 °F 16.2 °F 21.2 °F 80% 30.09 in 10.0 mi South 11.5 mph - N/A   Clear
7:35 AM 28.4 °F 18.0 °F 21.2 °F 74% 30.08 in 10.0 mi South 12.7 mph - N/A   Clear
7:55 AM 30.2 °F 20.8 °F 23.0 °F 75% 30.08 in 10.0 mi SSW 11.5 mph - N/A   Clear
8:15 AM 30.2 °F 19.3 °F 23.0 °F 75% 30.07 in 10.0 mi SSW 15.0 mph - N/A   Clear
8:35 AM 32.0 °F 21.6 °F 24.8 °F 75% 30.06 in 10.0 mi South 15.0 mph - N/A   Clear
8:55 AM 33.8 °F 23.5 °F 24.8 °F 70% 30.06 in 10.0 mi South 16.1 mph - N/A   Clear
9:15 AM 35.6 °F 24.5 °F 26.6 °F 70% 30.05 in 10.0 mi South 20.7 mph - N/A   Clear
9:35 AM 35.6 °F 24.8 °F 26.6 °F 70% 30.05 in 10.0 mi South 19.6 mph - N/A   Clear
9:55 AM 37.4 °F 28.9 °F 28.4 °F 70% 30.05 in 10.0 mi South 13.8 mph 21.9 mph N/A   Clear
10:15 AM 39.2 °F 28.7 °F 28.4 °F 65% 30.05 in 10.0 mi SSW 23.0 mph 33.4 mph N/A   Clear
10:35 AM 41.0 °F 30.9 °F 28.4 °F 61% 30.03 in 10.0 mi South 24.2 mph 31.1 mph N/A   Clear
10:55 AM 42.8 °F 33.1 °F 28.4 °F 57% 30.01 in 10.0 mi SSW 25.3 mph 38.0 mph N/A   Clear
11:15 AM 44.6 °F 34.9 °F 28.4 °F 53% 30.00 in 10.0 mi SSW 28.8 mph 38.0 mph N/A   Clear
11:35 AM 44.6 °F 35.1 °F 28.4 °F 53% 29.99 in 10.0 mi SSW 27.6 mph 34.5 mph N/A   Clear
11:55 AM 46.4 °F 36.9 °F 28.4 °F 50% 29.98 in 10.0 mi SSW 32.2 mph 38.0 mph N/A   Clear
12:15 PM 46.4 °F 37.0 °F 28.4 °F 50% 29.99 in 10.0 mi SSW 31.1 mph 36.8 mph N/A   Clear
12:35 PM 46.4 °F 36.5 °F 26.6 °F 46% 29.97 in 10.0 mi SSW 34.5 mph 41.4 mph N/A   Clear
12:55 PM 46.4 °F 38.3 °F 26.6 °F 46% 29.96 in 10.0 mi SW 23.0 mph 29.9 mph N/A   Mostly Cloudy
1:15 PM 46.4 °F 38.5 °F 28.4 °F 50% 29.94 in 10.0 mi SSW 21.9 mph 32.2 mph N/A   Mostly Cloudy
1:35 PM 46.4 °F 39.5 °F 28.4 °F 50% 29.93 in 10.0 mi SSW 17.3 mph 28.8 mph N/A   Mostly Cloudy
1:55 PM 46.4 °F 38.3 °F 28.4 °F 50% 29.92 in 10.0 mi SW 23.0 mph 27.6 mph N/A   Overcast
2:15 PM 46.4 °F 38.3 °F 28.4 °F 50% 29.90 in 10.0 mi SW 23.0 mph 26.5 mph N/A   Overcast
2:35 PM 46.4 °F 39.0 °F 28.4 °F 50% 29.90 in 10.0 mi SW 19.6 mph 23.0 mph N/A   Scattered Clouds
2:55 PM 46.4 °F 38.7 °F 28.4 °F 50% 29.89 in 10.0 mi SW 20.7 mph 26.5 mph N/A   Mostly Cloudy
3:15 PM 46.4 °F 38.7 °F 28.4 °F 50% 29.88 in 10.0 mi SW 20.7 mph 26.5 mph N/A   Overcast
3:35 PM 46.4 °F 39.2 °F 28.4 °F 50% 29.87 in 10.0 mi SSW 18.4 mph - N/A   Overcast
3:55 PM 46.4 °F 40.1 °F 30.2 °F 53% 29.88 in 10.0 mi SW 15.0 mph - N/A   Light Drizzle
4:15 PM 44.6 °F 38.8 °F 30.2 °F 57% 29.89 in 10.0 mi SSW 11.5 mph - N/A   Overcast
4:35 PM 44.6 °F 38.1 °F 30.2 °F 57% 29.89 in 10.0 mi SSW 13.8 mph - N/A   Scattered Clouds
4:55 PM 42.8 °F 36.2 °F 30.2 °F 61% 29.87 in 10.0 mi SSW 12.7 mph - N/A   Scattered Clouds
5:35 PM 42.8 °F 35.8 °F 30.2 °F 61% 29.88 in 10.0 mi SSW 13.8 mph - N/A   Clear
5:55 PM 42.8 °F 35.8 °F 30.2 °F 61% 29.89 in 10.0 mi SSW 13.8 mph - N/A   Clear
6:15 PM 42.8 °F 35.8 °F 30.2 °F 61% 29.90 in 10.0 mi SW 13.8 mph - N/A   Clear
6:35 PM 42.8 °F 36.2 °F 30.2 °F 61% 29.89 in 10.0 mi SW 12.7 mph - N/A   Scattered Clouds
6:55 PM 42.8 °F 35.4 °F 30.2 °F 61% 29.89 in 10.0 mi SW 15.0 mph - N/A   Scattered Clouds
7:15 PM 42.8 °F 35.4 °F 30.2 °F 61% 29.89 in 10.0 mi SW 15.0 mph - N/A   Mostly Cloudy
7:35 PM 42.8 °F 34.8 °F 30.2 °F 61% 29.89 in 10.0 mi SW 17.3 mph 21.9 mph N/A   Scattered Clouds
7:55 PM 42.8 °F 35.8 °F 30.2 °F 61% 29.89 in 10.0 mi WSW 13.8 mph - N/A   Mostly Cloudy
8:15 PM 41.0 °F 32.5 °F 28.4 °F 61% 29.89 in 10.0 mi WSW 17.3 mph - N/A   Scattered Clouds
8:35 PM 41.0 °F 32.8 °F 28.4 °F 61% 29.88 in 10.0 mi WSW 16.1 mph - N/A   Clear
8:55 PM 37.4 °F 28.2 °F 28.4 °F 70% 29.88 in 10.0 mi West 16.1 mph - N/A   Clear
9:15 PM 35.6 °F 27.1 °F 28.4 °F 75% 29.87 in 10.0 mi West 12.7 mph - N/A   Clear
9:35 PM 35.6 °F 27.1 °F 26.6 °F 70% 29.87 in 10.0 mi West 12.7 mph - N/A   Clear
9:55 PM 35.6 °F 27.5 °F 26.6 °F 70% 29.87 in 10.0 mi West 11.5 mph - N/A   Clear
10:15 PM 35.6 °F 27.1 °F 26.6 °F 70% 29.87 in 10.0 mi West 12.7 mph - N/A   Clear
10:35 PM 35.6 °F 27.1 °F 26.6 °F 70% 29.86 in 10.0 mi West 12.7 mph - N/A   Clear
10:55 PM 35.6 °F 28.0 °F 26.6 °F 70% 29.86 in 10.0 mi West 10.4 mph - N/A   Clear
11:15 PM 35.6 °F 26.6 °F 24.8 °F 65% 29.85 in 10.0 mi West 13.8 mph - N/A   Clear
11:35 PM 37.4 °F 27.5 °F 24.8 °F 60% 29.85 in 10.0 mi WNW 18.4 mph 25.3 mph N/A   Clear
11:55 PM 41.0 °F 30.9 °F 26.6 °F 57% 29.84 in 10.0 mi WNW 24.2 mph 29.9 mph N/A   Clear